EW6425 Weather Reports


time (UTC)temp
C
wind
direction
speed
KPH
gust
KPH
rain 1hr
cm
rain 24hr
cm
rain mn
cm
humidity
%
barometer
mb
20260508153018 13 335 16.1 20.9 0.00 2.08 0.03 77 1001.1
20260508151512 13 311 14.5 22.5 0.00 2.08 0.03 77 1001.1
20260508150011 13 344 14.5 24.1 0.00 2.08 0.03 76 1001.1
20260508144509 13 344 14.5 19.3 0.00 2.08 0.03 74 1001.2
20260508143007 14 86 8.0 12.9 0.00 2.08 0.03 65 1001.4
20260508141504 13 65 4.8 14.5 0.00 2.08 0.03 67 1001.5
20260508140003 13 94 6.4 12.9 0.00 2.08 0.03 68 1001.7
20260508134616 12 95 3.2 9.7 0.00 2.08 0.03 74 1001.9
20260508133051 12 95 1.6 6.4 0.00 2.08 0.03 79 1002.0
20260508131547 11 95 3.2 11.3 0.00 2.08 0.03 88 1002.1
20260508130043 10 96 3.2 11.3 0.00 2.08 0.03 93 1002.0
20260508124541 10 96 1.6 6.4 0.00 2.08 0.03 94 1001.9
20260508123038 10 96 0.0 4.8 0.00 2.08 0.03 95 1001.8
20260508121540 9 96 3.2 6.4 0.00 2.08 0.03 96 1001.9
20260508120033 8 96 4.8 9.7 0.00 2.08 0.03 96 1002.0
20260508114534 8 98 1.6 4.8 0.00 2.08 0.03 96 1002.2
20260508113039 7 98 0.0 4.8 0.00 2.08 0.03 96 1002.2
20260508111531 6 98 0.0 3.2 0.03 2.08 0.03 95 1002.2
20260508110030 6 98 3.2 4.8 0.03 2.08 0.03 96 1002.3
20260508104530 6 98 1.6 4.8 0.03 2.08 0.03 95 1002.5
20260508103035 5 98 0.0 0.0 0.03 2.08 0.03 95 1002.6
20260508101528 5 342 0.0 0.0 0.00 2.06 0.00 95 1002.3
20260508100029 5 342 0.0 0.0 0.00 2.06 0.00 95 1002.6
20260508094526 5 342 0.0 0.0 0.00 2.06 0.00 95 1002.4
20260508093024 5 342 0.0 0.0 0.00 2.06 0.00 95 1002.1
20260508091527 5 342 0.0 0.0 0.00 2.06 0.00 95 1001.8
20260508090025 5 342 0.0 0.0 0.00 2.06 0.00 95 1001.9
20260508084520 5 342 0.0 0.0 0.00 2.06 0.00 95 1002.1
20260508083017 6 342 0.0 4.8 0.00 2.06 0.00 95 1001.7
20260508081539 6 342 1.6 6.4 0.00 2.06 0.00 95 1001.5
20260508080015 6 342 3.2 12.9 0.00 2.06 0.00 95 1001.4
20260508074514 6 320 4.8 14.5 0.00 2.06 0.00 95 1001.4
20260508073010 6 333 6.4 16.1 0.00 2.06 0.00 95 1001.6
20260508071519 6 332 3.2 12.9 0.00 2.06 0.00 95 1001.8
20260508070007 6 333 4.8 14.5 0.00 2.06 0.00 95 1001.7
20260508064509 7 338 4.8 14.5 0.00 2.06 0.00 95 1001.9
20260508063119 7 339 3.2 12.9 0.00 2.06 0.00 95 1001.7
20260508061558 7 338 1.6 6.4 0.00 2.06 0.00 95 1001.7
20260508060105 8 338 4.8 12.9 0.00 2.06 0.00 95 1001.8
20260508054556 8 339 1.6 8.0 0.00 2.06 0.00 95 1001.7
20260508053057 8 339 4.8 9.7 0.00 2.06 0.00 95 1001.8
20260508051556 8 360 4.8 12.9 0.00 2.06 0.00 95 1001.8
20260508050054 8 360 1.6 8.0 0.00 2.06 0.00 95 1001.7
20260508044553 7 360 0.0 3.2 0.00 2.06 0.00 94 1001.6
20260508043052 7 360 0.0 6.4 0.00 2.06 0.00 95 1001.5
20260508041546 7 360 0.0 0.0 0.00 2.06 0.00 94 1001.8
20260508040051 8 360 1.6 4.8 0.00 2.06 0.00 94 1002.0
20260508034543 8 360 0.0 0.0 0.00 2.06 0.00 94 1001.8
20260508033039 8 360 3.2 4.8 0.00 2.06 0.00 94 1002.1
20260508031538 8 360 0.0 1.6 0.00 2.06 0.00 95 1002.1
20260508030037 8 360 1.6 4.8 0.00 2.06 0.00 95 1002.2
20260508024546 8 360 0.0 0.0 0.00 2.06 2.06 94 1002.4
20260508023035 8 360 0.0 0.0 0.00 2.06 2.06 94 1002.2
20260508021535 8 360 0.0 4.8 0.00 2.06 2.06 94 1002.5
20260508020034 8 360 4.8 12.9 0.00 2.06 2.06 94 1002.4
20260508014540 9 355 8.0 17.7 0.00 2.06 2.06 94 1002.6
20260508013028 10 307 6.4 12.9 0.00 2.06 2.06 94 1002.5
20260508011527 10 355 3.2 17.7 0.03 2.06 2.06 94 1002.3
20260508010033 10 355 9.7 17.7 0.03 2.06 2.06 94 1002.0
20260508004526 11 182 3.2 6.4 0.05 2.06 2.06 95 1002.1
20260508003023 11 182 0.0 3.2 0.05 2.06 2.06 94 1002.0
20260508001523 11 182 4.8 9.7 0.05 2.03 2.03 95 1002.1
20260508000023 11 160 0.0 3.2 0.05 2.03 2.03 95 1002.1
20260507234522 11 160 0.0 4.8 0.05 2.03 2.03 94 1002.1
20260507233035 11 160 4.8 8.0 0.03 2.01 2.01 94 1002.1
20260507231532 11 160 1.6 8.0 0.00 1.98 1.98 94 1002.0
20260507230021 11 160 0.0 4.8 0.00 1.98 1.98 94 1002.0
20260507224521 11 160 0.0 4.8 0.00 1.98 1.98 94 1001.8
20260507223020 11 160 0.0 0.0 0.00 1.98 1.98 94 1001.7
20260507221525 11 160 0.0 8.0 0.00 1.98 1.98 94 1001.6
20260507220021 11 160 3.2 9.7 0.00 1.98 1.98 94 1001.6
20260507214519 11 160 0.0 0.0 0.00 1.98 1.98 94 1001.8
20260507213018 11 160 0.0 8.0 0.00 1.98 1.98 94 1001.9
20260507211523 11 160 4.8 11.3 0.00 1.98 1.98 94 1001.9
20260507210119 11 190 1.6 6.4 0.00 1.98 1.98 94 1001.9
20260507204516 11 190 4.8 11.3 0.00 1.98 1.98 94 1001.9
20260507203015 11 176 4.8 14.5 0.05 1.98 1.98 94 1001.4
20260507201515 11 130 3.2 17.7 0.18 1.98 1.98 94 1001.0
20260507200012 11 138 1.6 11.3 0.33 1.98 1.98 94 1001.2
20260507194509 11 203 1.6 6.4 0.48 1.98 1.98 94 1001.9
20260507193007 11 203 1.6 4.8 0.53 1.93 1.93 94 1002.3
20260507191505 11 204 1.6 6.4 0.53 1.78 1.78 93 1002.7
20260507190004 12 205 3.2 8.0 0.51 1.63 1.63 93 1003.7
20260507184502 11 205 0.0 4.8 0.58 1.50 1.50 93 1003.8
20260507183002 11 205 0.0 9.7 0.84 1.37 1.37 93 1004.0
20260507181605 11 205 4.8 9.7 1.12 1.27 1.27 93 1004.2
20260507180100 11 213 6.4 19.3 1.04 1.09 1.09 92 1004.2
20260507174559 11 184 8.0 17.7 0.89 0.91 0.91 92 1004.7
20260507173103 12 218 9.7 19.3 0.51 0.53 0.53 91 1004.7
20260507171600 12 167 8.0 20.9 0.10 0.10 0.10 91 1004.2
20260507164600 13 169 9.7 32.2 0.03 0.03 0.03 89 1004.3
20260507163052 13 170 12.9 30.6 0.00 0.00 0.00 88 1004.5
20260507161549 13 189 14.5 27.4 0.00 0.00 0.00 87 1005.1
20260507160148 13 188 11.3 27.4 0.00 0.00 0.00 87 1005.4
20260507154551 13 173 16.1 27.4 0.00 0.00 0.00 87 1006.0